THORAD AGENA D DEB, 19391

Orbit data source: Space-Track

THORAD AGENA D DEB, 19391 is space debris in SSO originally from a launch on Wed, 08 Apr 1970 UTC launched from the Air Force Western Test Range (AFWTR). Debris objects in space refer to the collection of defunct objects orbiting the Earth. Examples of debris include non-operational satellites, rocket bodies, and fragments generated from explosions, collisions, or faulty payload assembly.

Loading next visibility...
Identifier
19391, 1970-025PZ
Orbit
SSO
Country
Flag of USUS
Related business
Manufacturer
Unknown
Mission
Spacecraft
Bus & Motor
Unknown
Mass
Unknown
Launch date (UTC)
1970-04-08 (56 years ago)
Launch vehicle
Unknown
Launch site
Air Force Western Test Range (AFWTR)
Object type
Payload
Rocket body
Debris
Shape & HBR
Unknown shape, 1.1 m
Radar Cross Section
Small (<0.1 m²)

Expand to show TLE details & history
Last TLE update: 11 hours ago

TLE from 11 hours ago
0 THORAD AGENA D DEB
1 19391U 70025PZ  26095.09186834  .00001996  00000-0  12475-2 0  9994
2 19391  98.7441 313.0128 0144060 140.2686  12.7906 14.00769790908856
Epoch: 2026-04-05T02:12Z
TLE epoch observation values (Epoch: 2026-04-05T02:12:17.424Z)
Latitude
26.27239°
Longitude
-89.13095°
Altitude
792.233 km
Speed
7.512 km/s
True Right ascension
09h 09m 22s
True Declination
26° 08' 13"
Sunlit
Object was in daylight at epoch
Visualization orbit readout
Latitude
Unknown
Longitude
Unknown
Altitude
Unknown
Speed
Unknown
Apparent Right ascension
Unknown
Apparent Declination
Unknown
Sunlit
N/A
Visualization observer readout
Local Sidereal Time
19:30:18
Azimuth
Unknown
Elevation
Unknown
Doppler factor
Unknown
Orbital elements
Apogee altitude
992.996 km
Perigee altitude
783.635 km
Semi-major axis
7,266.453 km
Eccentricity
0.01441
Inclination
98.7441°
RAAN
313.0128°
Arg. of periapsis
140.2686°
True anomaly
13.16259°
Mean anomaly
12.7906°
Eccentric anomaly
12.97594°
Mean motion
3.50396 °/min
Orbital period
102.74 mins
BSTAR
0.0012475
Loading maneuver chart data...
Computing Atmospheric mass density...

Documentation

Showing up to 5 results
|